Home   Weather   Cloppenburg   Past weeks

Flag for Germany Past Weather in Cloppenburg, Lower Saxony, Germany — Yesterday and Last 2 Weeks

43 °F

Quite cool.

Feels Like: 43 °F
Forecast: 40 / 50 °F
Wind: No wind

Location: Meppen-Mil

Current Time: Oct 22, 2016 at 9:48:23 PM

Latest Report: Oct 22, 2016 at 8:20 PM

Visibility: 0 mi

Pressure: 29.98 "Hg

Humidity: 93%

Dew Point: 41 °F

Location of CloppenburgLocation

Past Weather in Cloppenburg — Graph


Cloppenburg Temperature Yesterday

Maximum temperature yesterday: 50 °F (at 2:20 PM)
Minimum temperature yesterday: 37 °F (at 4:20 AM)
Average temperature yesterday: 44 °F

High & Low Weather Summary for the Past Weeks

High63 °F (Oct 16, 3:20 PM)100% (Oct 9, 4:20 AM)30.30 "Hg (Oct 9, 4:20 AM)
Low32 °F (Oct 9, 6:20 AM)55% (Oct 8, 4:20 PM)29.68 "Hg (Oct 15, 4:20 AM)
Average47 °F87%30.07 "Hg
* Reported Oct 7 8:20 PM — Oct 22 8:20 PM, Cloppenburg, Weather by CustomWeather, © 2016

Note: Actual official high and low records may vary slightly from our data, if they occured in-between our weather recording intervals... More about our weather records


Cloppenburg Weather History for the Previous 24 Hours

Scroll right to see more
Time TempWeatherWind HumidityBarometerVisibility
8:20 PM
Sat, Oct 22
43 °FQuite cool.No wind93%29.98 "Hg0 mi
7:20 PM45 °FQuite cool.1 mph93%29.98 "Hg1 mi
6:20 PM46 °FCool.1 mph87%29.98 "Hg5 mi
5:20 PM48 °FCool.1 mph82%29.98 "HgN/A
4:20 PM50 °FCool.1 mph67%29.95 "Hg6 mi
3:20 PM50 °FCool.3 mph71%29.98 "Hg6 mi
2:20 PM48 °FCool.2 mph76%29.98 "Hg6 mi
1:20 PM48 °FCool.2 mph76%29.98 "Hg6 mi
12:20 PM46 °FCool.2 mph82%29.98 "Hg5 mi
11:20 AM45 °FQuite cool.5 mph93%29.98 "Hg4 mi
10:20 AM45 °FQuite cool.3 mph93%29.95 "Hg3 mi
9:20 AM43 °FQuite cool.2 mph93%29.95 "Hg2 mi
8:20 AM43 °FQuite cool.3 mph93%29.95 "Hg2 mi
7:20 AM43 °FQuite cool.3 mph93%29.92 "Hg1 mi
6:20 AM43 °FQuite cool.3 mph93%29.92 "Hg2 mi
5:20 AM43 °FQuite cool.2 mph93%29.92 "Hg3 mi
4:20 AM43 °FQuite cool.3 mph93%29.92 "Hg3 mi
3:20 AM45 °FQuite cool.3 mph93%29.92 "Hg2 mi
2:20 AM45 °FQuite cool.5 mph93%29.92 "Hg4 mi
1:20 AM45 °FQuite cool.1 mph93%29.92 "Hg4 mi
12:20 AM46 °FCool.3 mph100%29.92 "Hg4 mi
11:20 PM
Fri, Oct 21
46 °FCool.2 mph100%29.92 "Hg2 mi
10:20 PM46 °FCool.1 mph100%29.92 "Hg3 mi
9:20 PM46 °FCool.1 mph93%29.92 "Hg4 mi
Weather by CustomWeather, © 2016

See weather overviewHow to use our weather pages